Change the Weather History Date:

Sunday, January 20, 2013

  Actual Average Record
Temperature  
Mean Temperature 24 °F 22 °F  
Max Temperature 34 °F 33 °F 57 °F (2005)
Min Temperature 13 °F 10 °F -27 °F (1987)
Degree Days  
Heating Degree Days 41 43  
Month to date heating degree days 1058 861  
Since 1 July heating degree days 4268 4534  
Cooling Degree Days 0 0  
Month to date cooling degree days 0 0  
Year to date cooling degree days 0 0  
Moisture  
Dew Point 10 °F    
Average Humidity 56    
Maximum Humidity 74    
Minimum Humidity 38    
Precipitation  
Precipitation 0.00 in 0.01 in 0.32 in (1962)
Month to date precipitation T 0.17  
Year to date precipitation T 0.17  
Sea Level Pressure  
Sea Level Pressure 30.24 in    
Wind  
Wind Speed 9 mph (ENE)    
Max Wind Speed 26 mph    
Max Gust Speed 32 mph    
Visibility 10 miles    
Events      
T = Trace of Precipitation, MM = Missing Value Source: NWS Daily Summary

Daily Weather History Graph

Daily Weather History Graph

Search for Another Location

Airport or City:

Trip Planner

Search our weather history database for the weather conditions in past years. The results will help you decide how hot, cold, wet, or windy it might be!

Date:

Astronomy

Jan. 20, 2013 Rise Set
Actual Time 7:23 AM MST 5:04 PM MST
Civil Twilight 6:53 AM MST 5:34 PM MST
Nautical Twilight 6:19 AM MST 6:08 PM MST
Astronomical Twilight 5:46 AM MST 6:41 PM MST
Moon 12:07 PM MST (1/20) 1:57 AM MST (1/20)
Length of Visible Light 10h 41m
Length of Day
9h 41m
Waxing Gibbous, 67% of the Moon is Illuminated
Jan 20
Waxing Gibbous
Jan 26
Full
Feb 3
Last Quarter
Feb 10
New
Feb 17
First Quarter

Hourly Weather History & Observations

Time (MST) Temp. Windchill Dew Point Humidity Pressure Visibility Wind Dir Wind Speed Gust Speed Precip Events Conditions
12:53 AM 27.0 °F 12.5 °F 7.0 °F 43% 30.15 in 10.0 mi SW 23.0 mph - N/A   Clear
1:53 AM 28.0 °F 13.9 °F 7.0 °F 41% 30.14 in 10.0 mi SW 23.0 mph - N/A   Clear
2:53 AM 27.0 °F 13.9 °F 8.1 °F 45% 30.14 in 10.0 mi SW 18.4 mph - N/A   Clear
3:53 AM 27.0 °F 14.7 °F 7.0 °F 43% 30.16 in 10.0 mi SW 16.1 mph 26.5 mph N/A   Clear
4:53 AM 19.9 °F 9.3 °F 5.0 °F 52% 30.22 in 10.0 mi WSW 9.2 mph - N/A   Clear
5:53 AM 19.0 °F 7.5 °F 5.0 °F 54% 30.25 in 10.0 mi West 10.4 mph - N/A   Clear
6:53 AM 21.9 °F 9.8 °F 5.0 °F 48% 30.26 in 10.0 mi WSW 12.7 mph - N/A   Clear
7:53 AM 19.9 °F 12.1 °F 5.0 °F 52% 30.31 in 10.0 mi West 5.8 mph - N/A   Clear
8:53 AM 26.1 °F - 5.0 °F 41% 30.30 in 10.0 mi Calm Calm - N/A   Clear
9:53 AM 25.0 °F 20.7 °F 10.9 °F 55% 30.29 in 10.0 mi East 3.5 mph - N/A   Clear
10:53 AM 28.0 °F 20.8 °F 10.0 °F 47% 30.29 in 10.0 mi NNE 6.9 mph - N/A   Clear
11:53 AM 28.0 °F 20.0 °F 15.1 °F 58% 30.25 in 10.0 mi NE 8.1 mph - N/A   Clear
12:53 PM 30.9 °F 23.5 °F 15.1 °F 52% 30.20 in 10.0 mi NE 8.1 mph - N/A   Clear
1:53 PM 33.1 °F 24.9 °F 16.0 °F 50% 30.16 in 10.0 mi ENE 10.4 mph - N/A   Clear
2:53 PM 33.1 °F 26.1 °F 16.0 °F 50% 30.16 in 10.0 mi NNE 8.1 mph - N/A   Clear
3:53 PM 30.9 °F 22.2 °F 17.1 °F 57% 30.17 in 10.0 mi ENE 10.4 mph - N/A   Clear
4:53 PM 28.0 °F 21.7 °F 18.0 °F 66% 30.24 in 10.0 mi East 5.8 mph - N/A   Overcast
5:53 PM 27.0 °F 21.6 °F 15.1 °F 61% 30.26 in 10.0 mi East 4.6 mph - N/A   Clear
6:53 PM 27.0 °F 21.6 °F 12.9 °F 56% 30.25 in 10.0 mi Variable 4.6 mph - N/A   Clear
7:53 PM 17.1 °F 10.0 °F 10.0 °F 74% 30.32 in 10.0 mi ENE 4.6 mph - N/A   Clear
8:53 PM 17.1 °F 8.7 °F 8.1 °F 68% 30.30 in 10.0 mi ENE 5.8 mph - N/A   Clear
9:53 PM 14.0 °F 2.0 °F 5.0 °F 67% 30.32 in 10.0 mi ENE 9.2 mph - N/A   Clear
10:53 PM 17.1 °F 6.6 °F 6.1 °F 62% 30.28 in 10.0 mi ENE 8.1 mph - N/A   Clear
11:53 PM 17.1 °F 8.7 °F 5.0 °F 59% 30.27 in 10.0 mi East 5.8 mph - N/A   Clear